Terminal Aerodrome Forecast
Issued by NWS

Home | Current Version | Previous Version | Graphics & Text | Print | Product List | Glossary On
Versions: 1 2 3 4 5 6 7 8 9 10 11 12 13 14 15 16 17 18 19 20 21 22 23 24 25 26 27 28 29 30 31 32 33 34 35 36 37 38 39 40 41 42 43 44 45 46 47 48 49 50
000
FTUS43 KLOT 252200 AAC
TAFGYY
TAF AMD
KGYY 252207Z 2522/2618 16005KT P6SM SCT020 BKN030
     FM252230 29012G18KT P6SM SCT035
     FM252345 17005KT P6SM VCTS BKN035CB
     FM260100 31006KT P6SM FEW020 BKN040
     FM260400 25007KT 5SM BR FEW010 BKN060
     FM261300 30007KT P6SM BKN060
     FM261700 34008KT P6SM SCT030=

USA.gov is the U.S. government's official web portal to all federal, state and local government web resources and services.